Station 45012 (LLNR 2655) - EAST Lake Ontario - 20NM North Northeast of Rochester, NY Image indicating link to RSS feed of recent meteorological observations for station 45012


Conditions at 45012 as of
(9:40 pm EDT on 10/04/2023)
0140 GMT on 10/05/2023:
     

Click on the graph icon in the table below to see a time series plot of the last five days of that observation.

5-day plot - Wind Direction Wind Direction (WDIR):SSE ( 150 deg true )
5-day plot - Wind Speed Wind Speed (WSPD): 9.7 kts
5-day plot - Wind Gust Wind Gust (GST): 11.7 kts
5-day plot - Atmospheric Pressure Atmospheric Pressure (PRES):30.08 in
5-day plot - Air Temperature Air Temperature (ATMP): 72.3 °F
5-day plot - Water Temperature Water Temperature (WTMP): 68.7 °F
5-day plot - Dew Point Dew Point (DEWP): 66.9 °F
5-day plot - Wind Speed at 10 Meters Wind Speed at 10 meters (WSPD10M): 11.7 kts
5-day plot - Wind Speed at 20 Meters Wind Speed at 20 meters (WSPD20M): 11.7 kts
5-day plot -  Wind Speed, Wind Gust and Atmospheric Pressure Combined plot of Wind Speed, Gust, and Air Pressure
Supplemental Measurements
Highest 1-minute Wind Speed
Time (EDT)5-day plot - 1-Minute Wind Speed WSPD 5-day plot - 1-Minute Wind Direction WDIR
9:36 pm 9.7 kts-
Previous observations
TIME
(EDT)
5-day plot - Wind Direction
WDIR
 
5-day plot - Wind Speed
WSPD
kts
5-day plot - Wind Gust
GST
kts
5-day plot - Wave Height
WVHT
ft
5-day plot - Dominant Wave Period
DPD
sec
5-day plot - Average Wave Period
APD
sec
5-day plot - Mean Wave Direction
MWD
 
5-day plot - Atmospheric Pressure
PRES
in
5-day plot - Pressure Tendency
PTDY
in
5-day plot - Air Temperature
ATMP
°F
5-day plot - Water Temperature
WTMP
°F
5-day plot - Dew Point
DEWP
°F
5-day plot - Salinity
SAL
psu
5-day plot - Visibility
VIS
nmi
5-day plot - Tide (above MLLW)
TIDE
ft
2023-10-04 09:30 pm SE 9.7 11.7----30.08- 72.3 68.7 66.9---
2023-10-04 09:20 pm SE 9.7 11.7 1.0 22.4 E30.07- 72.3 68.7 66.9---
2023-10-04 09:10 pm SE 9.7 11.7----30.07- 72.7 68.7 66.9---
2023-10-04 09:00 pm SE 9.7 11.7----30.07+0.00 72.1 68.7 66.9---
2023-10-04 08:50 pmESE 9.7 11.7 1.0 22.4ESE30.07- 72.3 68.7 66.9---
2023-10-04 08:40 pmESE 11.7 13.6----30.06- 72.1 68.7 66.9---
2023-10-04 08:30 pmESE 11.7 13.6----30.06- 72.1 68.7 66.9---
2023-10-04 08:20 pmESE 11.7 13.6 0.7-2.3-30.06- 72.1 68.7 66.9---
2023-10-04 08:10 pmESE 9.7 11.7 0.7-2.3-30.07- 72.0 68.9 67.1---
2023-10-04 08:00 pmESE 9.7 11.7----30.07+0.00 71.6 68.9 67.1---
2023-10-04 07:50 pmESE 9.7 11.7 0.7-2.3-30.06- 71.4 68.9 67.5---
2023-10-04 07:40 pm E 9.7 11.7----30.06- 71.2 68.9 67.6---
2023-10-04 07:30 pm E 9.7 11.7----30.06- 70.9 68.9 67.6---
2023-10-04 07:20 pm E 9.7 11.7 0.7-2.3-30.06- 71.2 68.9 67.6---
2023-10-04 07:10 pm E 9.7 11.7----30.06- 71.1 68.9 67.5---
2023-10-04 07:00 pm E 9.7 11.7----30.06-0.03 70.9 69.1 67.6---
2023-10-04 06:50 pm E 9.7 11.7 0.7-2.3-30.06- 70.7 69.1 67.8---
2023-10-04 06:40 pm E 9.7 11.7----30.06- 70.7 69.1 68.2---
2023-10-04 06:30 pm E 9.7 9.7----30.06- 70.5 69.1 68.4---
2023-10-04 06:20 pm E 9.7 11.7 0.3-2.2-30.06- 70.7 69.1 68.0---
2023-10-04 06:10 pm E 7.8 9.7 0.3-2.2-30.07- 70.7 69.1 68.0---
2023-10-04 06:00 pm E 7.8 9.7----30.07-0.04 70.9 69.1 68.0---
2023-10-04 05:50 pm E 9.7 9.7 0.3-2.2-30.07- 70.9 69.1 68.0---
2023-10-04 05:40 pm E 9.7 9.7----30.07- 70.9 69.1 68.0---
2023-10-04 05:30 pmENE 9.7 11.7----30.07- 71.1 69.3 67.8---
2023-10-04 05:20 pmENE 7.8 9.7 0.3-2.2-30.07- 71.2 69.3 67.8---
2023-10-04 05:10 pmENE 7.8 9.7 0.3-2.2-30.07- 71.1 69.3 67.6---
2023-10-04 05:00 pmENE 7.8 9.7----30.07-0.06 71.1 69.3 67.6---
2023-10-04 04:50 pmENE 7.8 9.7 0.3-2.2-30.08- 71.1 69.3 68.0---
2023-10-04 04:40 pmENE 7.8 9.7 0.3-2.2-30.08- 70.9 69.3 67.8---
2023-10-04 04:30 pmENE 7.8 9.7----30.08- 71.1 69.3 67.8---
2023-10-04 04:20 pm E 9.7 9.7 0.3-2.2-30.09- 71.1 69.3 67.6---
2023-10-04 04:10 pm E 7.8 9.7----30.09- 70.9 69.3 67.8---
2023-10-04 04:00 pm E 7.8 9.7----30.09-0.06 70.7 69.3 68.0---
2023-10-04 03:50 pm E 7.8 9.7 0.3-2.2-30.10- 70.7 69.3 68.0---
2023-10-04 03:40 pmENE 7.8 7.8----30.10- 70.5 69.3 68.2---
2023-10-04 03:30 pmENE 7.8 9.7----30.11- 70.3 69.3 67.8---
2023-10-04 03:20 pm E 7.8 9.7 0.3-2.3-30.11- 70.3 69.1 67.8---
2023-10-04 03:10 pm E 7.8 9.7 0.3-2.3-30.11- 70.2 69.3 67.8---
2023-10-04 03:00 pm E 7.8 9.7----30.11-0.06 70.2 69.1 68.0---
2023-10-04 02:50 pm E 7.8 9.7 0.3-2.3-30.11- 70.2 69.1 67.8---
2023-10-04 02:40 pm E 7.8 9.7----30.11- 70.2 69.3 67.8---
2023-10-04 02:30 pm E 7.8 7.8----30.12- 70.2 69.1 67.6---
2023-10-04 02:20 pm E 5.8 7.8 0.3-2.3-30.12- 70.2 68.9 67.6---
2023-10-04 02:10 pm E 5.8 7.8----30.13- 70.0 69.1 67.6---
2023-10-04 02:00 pm E 5.8 7.8----30.13-0.05 69.8 68.9 67.3---
2023-10-04 01:50 pm E 5.8 7.8 0.3-2.3-30.13- 69.6 68.9 67.3---
2023-10-04 01:40 pm E 5.8 7.8----30.14- 69.3 68.9 67.1---
2023-10-04 01:30 pm E 5.8 7.8----30.14- 69.1 68.7 66.9---
2023-10-04 01:20 pm E 5.8 5.8 0.3-2.3-30.15- 68.9 68.7 66.7---
2023-10-04 01:10 pm E 5.8 7.8----30.15- 68.7 68.5 66.6---
2023-10-04 01:00 pm E 5.8 7.8----30.15-0.04 68.7 68.5 66.6---
2023-10-04 12:50 pm E 7.8 7.8 0.3-2.3-30.16- 68.4 68.5 66.4---
2023-10-04 12:40 pm E 7.8 7.8----30.16- 68.2 68.5 66.6---
2023-10-04 12:30 pm E 7.8 7.8----30.16- 68.2 68.5 66.4---
2023-10-04 12:20 pm E 7.8 7.8 0.3-2.4-30.17- 68.2 68.5 66.4---
2023-10-04 12:10 pmESE 7.8 9.7----30.17- 68.2 68.4 66.2---
2023-10-04 12:00 pmESE 7.8 9.7----30.17-0.02 68.0 68.5 66.2---
2023-10-04 11:50 am E 7.8 7.8 0.3-2.5-30.18- 68.0 68.5 66.0---
2023-10-04 11:40 am E 5.8 7.8----30.18- 68.0 68.4 66.0---
2023-10-04 11:30 amESE 5.8 5.8----30.18- 68.0 68.4 66.0---
2023-10-04 11:20 amESE 5.8 5.8 0.0-2.4-30.19- 68.0 68.4 65.7---
2023-10-04 11:10 am SE 5.8 7.8----30.19- 67.8 68.4 65.3---
2023-10-04 11:00 am SE 5.8 7.8----30.19+0.00 67.8 68.2 65.7---
2023-10-04 10:50 am SE 7.8 7.8 0.3-2.7-30.19- 67.8 68.2 65.8---
2023-10-04 10:40 amSSE 7.8 7.8----30.19- 68.0 68.2 65.8---
2023-10-04 10:30 amSSE 5.8 7.8----30.19- 68.0 68.2 65.5---
2023-10-04 10:20 amSSE 5.8 7.8 0.3-2.8-30.19- 67.8 68.2 65.5---
2023-10-04 10:10 amSSE 5.8 7.8----30.19- 67.8 68.2 65.5---
2023-10-04 10:00 amSSE 5.8 7.8----30.19+0.02 68.0 68.2 65.3---
2023-10-04 09:50 amSSE 5.8 5.8 0.0-2.6-30.19- 68.0 68.2 64.9---
2023-10-04 09:40 amSSE 5.8 5.8 0.0-2.6-30.20- 67.8 68.2 64.6---
2023-10-04 09:30 amSSE 5.8 7.8----30.19- 67.8 68.2 65.1---
2023-10-04 09:20 am S 5.8 7.8 0.0-2.6-30.20- 67.8 68.2 65.1---
2023-10-04 09:10 amSSE 5.8 5.8----30.20- 67.8 68.2 64.9---
2023-10-04 09:00 amSSE 5.8 7.8----30.20+0.04 67.6 68.2 64.9---
2023-10-04 08:50 am S 5.8 7.8 0.3-2.9-30.20- 67.6 68.2 65.1---
2023-10-04 08:40 am S 5.8 7.8----30.20- 67.6 68.2 64.9---
2023-10-04 08:30 am S 5.8 5.8----30.19- 67.6 68.2 64.8---
2023-10-04 08:20 am S 5.8 5.8 0.3-2.8-30.19- 67.6 68.2 64.9---
2023-10-04 08:10 am S 3.9 5.8----30.19- 67.6 68.2 64.9---
2023-10-04 08:00 am S 3.9 5.8----30.19+0.04 67.6 68.0 64.9---
2023-10-04 07:50 am S 5.8 5.8 0.0-2.7-30.19- 67.5 68.0 65.3---
2023-10-04 07:40 am S 5.8 7.8----30.19- 67.6 68.0 65.7---
2023-10-04 07:30 am S 5.8 7.8----30.19- 67.6 68.2 66.0---
2023-10-04 07:20 am S 5.8 7.8 0.0-2.6-30.18- 67.6 68.2 66.0---
2023-10-04 07:10 amSSE 3.9 5.8----30.18- 67.6 68.2 66.4---
2023-10-04 07:00 amSSE 3.9 5.8----30.17+0.03 67.8 68.2 66.6---
2023-10-04 06:50 am S 5.8 5.8 0.0-2.6-30.17- 67.8 68.2 66.2---
2023-10-04 06:40 am S 5.8 5.8 0.0-2.6-30.17- 67.8 68.2 66.4---
2023-10-04 06:30 am S 5.8 7.8----30.17- 67.6 68.2 66.4---
2023-10-04 06:20 amSSE 5.8 5.8 0.3-2.7-30.17- 67.6 68.2 66.7---
2023-10-04 06:10 amSSE 3.9 5.8 0.3-2.7-30.16- 67.6 68.2 67.1---
2023-10-04 06:00 am S 3.9 5.8----30.16+0.02 67.6 68.2 67.1---
2023-10-04 05:50 amSSE 3.9 5.8 0.3-2.7-30.16- 67.8 68.2 67.3---
2023-10-04 05:40 amSSE 3.9 3.9----30.16- 67.8 68.2 67.3---
2023-10-04 05:30 am S 3.9 3.9----30.16- 67.8 68.2 67.1---
2023-10-04 05:20 am S 3.9 3.9 0.3-2.7-30.15- 67.8 68.2 67.1---
2023-10-04 05:10 am S 3.9 5.8----30.15- 67.8 68.2 66.9---
2023-10-04 05:00 am S 3.9 5.8----30.15+0.01 68.0 68.2 66.9---
2023-10-04 04:50 am S 5.8 5.8 0.3-2.7-30.15- 68.0 68.2 66.9---
2023-10-04 04:40 am S 5.8 5.8 0.3-2.7-30.14- 68.0 68.2 66.7---
2023-10-04 04:30 am S 5.8 5.8----30.14- 68.2 68.2 66.9---
2023-10-04 04:20 am S 5.8 7.8 0.3-2.7-30.14- 68.0 68.2 66.9---
2023-10-04 04:10 am S 5.8 5.8 0.3-2.7-30.14- 68.0 68.2 67.3---
2023-10-04 04:00 am S 5.8 5.8----30.14+0.01 68.2 68.2 67.5---
2023-10-04 03:50 am S 5.8 5.8 0.3-2.7-30.14- 68.2 68.2 67.3---
2023-10-04 03:40 am S 3.9 5.8 0.3-2.7-30.14- 68.2 68.2 66.9---
2023-10-04 03:30 amSSE 3.9 5.8----30.14- 68.4 68.2 66.9---
2023-10-04 03:20 am S 5.8 5.8 0.3-2.8-30.14- 68.4 68.2 66.9---
2023-10-04 03:10 am S 3.9 5.8----30.14- 68.2 68.2 66.9---
2023-10-04 03:00 am S 3.9 3.9----30.14+0.00 68.2- 67.1---
2023-10-04 02:50 am S 3.9 3.9 0.3-2.8-30.14- 68.4 68.4 67.1---
2023-10-04 02:40 am S 3.9 3.9----30.14- 68.4 68.4 66.9---
2023-10-04 02:30 am S 3.9 3.9----30.14- 68.5 68.4 67.1---
2023-10-04 02:20 am S 3.9 3.9 0.3-2.8-30.14- 68.5 68.4 67.1---
2023-10-04 02:10 am S 3.9 3.9----30.14- 68.5 68.2 67.1---
2023-10-04 02:00 amSSW 1.9 3.9----30.14+0.00 68.5 68.2 67.1---
2023-10-04 01:50 amSSW 1.9 1.9 0.3-2.7-30.14- 68.5 68.2 67.1---
2023-10-04 01:40 am S 3.9 3.9----30.14- 68.5 68.2 66.9---
2023-10-04 01:30 am S 3.9 3.9----30.14- 68.5 68.2 66.9---
2023-10-04 01:20 am S 3.9 3.9 0.3-2.8-30.13- 68.7 68.2 67.1---
2023-10-04 01:10 am S 3.9 3.9----30.14- 68.7 68.2 66.9---
2023-10-04 01:00 am S 3.9 3.9----30.14+0.00 68.9 68.2 66.9---
2023-10-04 12:50 am S 3.9 3.9 0.3-2.8-30.14- 68.9 68.2 66.7---
2023-10-04 12:40 am S 3.9 3.9----30.14- 68.9 68.4 66.7---
2023-10-04 12:30 am S 3.9 3.9----30.14- 68.9 68.4 66.7---
2023-10-04 12:20 am S 3.9 3.9 0.3-2.8-30.14- 69.1 68.4 66.7---
2023-10-04 12:10 am S 3.9 5.8----30.14- 69.1 68.4 66.7---
2023-10-04 12:00 am S 5.8 5.8----30.14+0.00 69.1 68.4 66.7---
2023-10-03 11:50 pm S 5.8 5.8 0.3-2.8-30.14- 69.3 68.4 66.7---
2023-10-03 11:40 pm S 3.9 5.8 0.3-2.8-30.14- 69.3 68.4 66.6---
2023-10-03 11:30 pm S 3.9 5.8----30.14- 69.3 68.4 66.7---
2023-10-03 11:20 pm S 5.8 5.8 0.3-2.8-30.14- 69.3 68.4 66.6---
2023-10-03 11:10 pm S 5.8 5.8----30.14- 69.4 68.4 66.6---
2023-10-03 11:00 pm S 5.8 5.8----30.14+0.00 69.4 68.4 66.4---
2023-10-03 10:50 pm S 5.8 7.8 0.3-2.9-30.14- 69.3 68.4 66.6---
2023-10-03 10:40 pm S 7.8 7.8 0.3-2.9-30.14- 69.1 68.4 66.7---
2023-10-03 10:30 pm S 7.8 7.8----30.14- 68.9 68.4 67.1---
2023-10-03 10:20 pm S 5.8 7.8 0.3-3.0-30.14- 68.9 68.4 67.3---
2023-10-03 10:10 pm S 5.8 7.8----30.14- 68.7 68.4 67.1---
2023-10-03 10:00 pm S 5.8 7.8----30.14+0.01 68.7 68.4 67.6---
2023-10-03 09:50 pm S 5.8 7.8 0.3-2.9-30.14- 68.7 68.4 67.6---

Detailed Wave Summary
for 45012 as of
(9:10 pm EDT on 10/04/2023)
0110 GMT on 10/05/2023:

These wave data are displayed in rounded times.

     

Click on the graph icon in the table below to see a time series plot of the last five days of that observation.

5-day plot - Significant Wave Height Significant Wave Height (WVHT): 1.0 ft
5-day plot - Swell Height Swell Height (SwH): 0.0 ft
5-day plot - Swell Period Swell Period (SwP): 6.2 sec
5-day plot - Swell Direction Swell Direction (SwD): SE
5-day plot - Wind Wave Height Wind Wave Height (WWH): 1.0 ft
5-day plot - Wind Wave Period Wind Wave Period (WWP): 2.5 sec
5-day plot - Wind Wave Direction Wind Wave Direction (WWD): E
5-day plot - Average Wave Period Average Wave Period (APD): 2.4 sec
Previous observations
TIME
(EDT)
5-day plot - Wave Height
WVHT
ft
5-day plot - Swell Height
SwH
ft
5-day plot - Swell Period
SwP
sec
5-day plot - Swell Direction
SwD
 
5-day plot - Wind Wave Height
WWH
ft
5-day plot - Wind Wave Period
WWP
sec
5-day plot - Wind Wave Direction
WWD
 
5-day plot - Wave Steepness
STEEPNESS
 
5-day plot - Average Wave Period
APD
sec
2023-10-04 08:40 pm 1.0 0.0 16.0 SE 1.0 2.5 ESE N/A 2.4
2023-10-04 08:10 pm 0.7------ N/A 2.3
2023-10-04 07:40 pm 0.7------ N/A 2.3
2023-10-04 07:10 pm 0.7------ N/A 2.3
2023-10-04 06:40 pm 0.7------ N/A 2.3
2023-10-04 06:10 pm 0.3------ N/A 2.2
2023-10-04 05:40 pm 0.3------ N/A 2.2
2023-10-04 05:10 pm 0.3------ N/A 2.2
2023-10-04 04:40 pm 0.3------ N/A 2.2
2023-10-04 04:10 pm 0.3------ N/A 2.2
2023-10-04 03:40 pm 0.3------ N/A 2.2
2023-10-04 03:10 pm 0.3------ N/A 2.3
2023-10-04 02:40 pm 0.3------ N/A 2.3
2023-10-04 02:10 pm 0.3------ N/A 2.3
2023-10-04 01:40 pm 0.3------ N/A 2.3
2023-10-04 01:10 pm 0.3------ N/A 2.3
2023-10-04 12:40 pm 0.3------ N/A 2.3
2023-10-04 12:10 pm 0.3------ N/A 2.4
2023-10-04 11:40 am 0.3------ N/A 2.5
2023-10-04 11:10 am 0.0------ N/A 2.4
2023-10-04 10:40 am 0.3------ N/A 2.7
2023-10-04 10:10 am 0.3------ N/A 2.8
2023-10-04 09:40 am 0.0------ N/A 2.6
2023-10-04 09:10 am 0.0------ N/A 2.6
2023-10-04 08:40 am 0.3------ N/A 2.9
2023-10-04 08:10 am 0.3------ N/A 2.8
2023-10-04 07:40 am 0.0------ N/A 2.7
2023-10-04 07:10 am 0.0------ N/A 2.6
2023-10-04 06:40 am 0.0------ N/A 2.6
2023-10-04 06:10 am 0.3------ N/A 2.7
2023-10-04 05:40 am 0.3------ N/A 2.7
2023-10-04 05:10 am 0.3------ N/A 2.7
2023-10-04 04:40 am 0.3------ N/A 2.7
2023-10-04 04:10 am 0.3------ N/A 2.7
2023-10-04 03:40 am 0.3------ N/A 2.7
2023-10-04 03:10 am 0.3------ N/A 2.8
2023-10-04 02:40 am 0.3------ N/A 2.8
2023-10-04 02:10 am 0.3------ N/A 2.8
2023-10-04 01:40 am 0.3------ N/A 2.7
2023-10-04 01:10 am 0.3------ N/A 2.8
2023-10-04 12:40 am 0.3------ N/A 2.8
2023-10-04 12:10 am 0.3------ N/A 2.8
2023-10-03 11:40 pm 0.3------ N/A 2.8
2023-10-03 11:10 pm 0.3------ N/A 2.8
2023-10-03 10:40 pm 0.3------ N/A 2.9
2023-10-03 10:10 pm 0.3------ N/A 3.0

Plot of wave energy versus frequency (and period)